When you browse on this site, cookies collect data to enhance your experience and personalize the content and advertising you see.
Visit our Privacy Policy to learn more. By continuing to use the site, you agree to this use of cookies and data.
  • In United Kingdom
  • List of Countries
  • For 7 days
  • Water Temperature
  • Satellite Maps
  • Weather Map
  • Weather Widgets
  • user-avatar
    Login

    Hourly Weather Libourne

    Today, 15 December, Saturday

    Time Temperature Precipitation Wind Pressure Humidity
    00:00 +3°C° 0 mm 1 mps 763 mmHg 77%
    01:00 +3°C° 0 mm 1 mps 763 mmHg 77%
    02:00 +2°C° 0 mm 2 mps 762 mmHg 78%
    03:00 +2°C° 0 mm 2 mps 762 mmHg 79%
    04:00 +2°C° 0 mm 2 mps 762 mmHg 80%
    05:00 +3°C° 0 mm 2 mps 761 mmHg 80%
    06:00 +4°C° 0 mm 2 mps 761 mmHg 81%
    07:00 +3°C° 0.1 mm 3 mps 761 mmHg 83%
    08:00 +4°C° 0.1 mm 3 mps 761 mmHg 85%
    09:00 +4°C° 0.1 mm 3 mps 761 mmHg 86%
    10:00 +5°C° 0.4 mm 3 mps 760 mmHg 86%
    11:00 +5°C° 0.4 mm 3 mps 760 mmHg 86%
    12:00 +7°C° 0.4 mm 3 mps 759 mmHg 86%
    13:00 +7°C° 2 mm 3 mps 759 mmHg 89%
    14:00 +7°C° 2 mm 3 mps 759 mmHg 92%
    15:00 +7°C° 2 mm 3 mps 758 mmHg 95%
    16:00 +8°C° 0.2 mm 3 mps 758 mmHg 95%
    17:00 +8°C° 0.2 mm 3 mps 758 mmHg 95%
    18:00 +8°C° 0.2 mm 3 mps 757 mmHg 96%
    19:00 +9°C° 1.4 mm 3 mps 757 mmHg 95%
    20:00 +10°C° 1.4 mm 3 mps 757 mmHg 95%
    21:00 +10°C° 1.4 mm 3 mps 757 mmHg 95%
    22:00 +11°C° 0.8 mm 3 mps 757 mmHg 95%
    23:00 +11°C° 0.8 mm 3 mps 757 mmHg 95%

    Tomorrow, 16 December, Sunday

    Time Temperature Precipitation Wind Pressure Humidity
    00:00 +12°C° 0.8 mm 3 mps 757 mmHg 95%
    01:00 +11°C° 0.3 mm 3 mps 757 mmHg 95%
    02:00 +12°C° 0.3 mm 2 mps 757 mmHg 96%
    03:00 +12°C° 0.3 mm 2 mps 757 mmHg 96%
    04:00 +12°C° 0.3 mm 1 mps 757 mmHg 95%
    05:00 +11°C° 0.3 mm 1 mps 757 mmHg 95%
    06:00 +11°C° 0.3 mm 1 mps 757 mmHg 95%
    07:00 +11°C° 0.2 mm 1 mps 757 mmHg 94%
    08:00 +11°C° 0.2 mm 1 mps 757 mmHg 94%
    09:00 +11°C° 0.2 mm 1 mps 758 mmHg 94%
    10:00 +11°C° 0.3 mm 1 mps 757 mmHg 93%
    11:00 +10°C° 0.3 mm 2 mps 757 mmHg 92%
    12:00 +12°C° 0.3 mm 2 mps 757 mmHg 91%
    13:00 +12°C° 0.2 mm 2 mps 756 mmHg 90%
    14:00 +12°C° 0.2 mm 2 mps 756 mmHg 89%
    15:00 +12°C° 0.2 mm 2 mps 756 mmHg 89%
    16:00 +10°C° 0.4 mm 3 mps 756 mmHg 89%
    17:00 +10°C° 0.4 mm 3 mps 757 mmHg 90%
    18:00 +9°C° 0.4 mm 3 mps 757 mmHg 91%
    19:00 +8°C° 0.5 mm 4 mps 758 mmHg 89%
    20:00 +8°C° 0.5 mm 4 mps 759 mmHg 86%
    21:00 +8°C° 0.5 mm 5 mps 759 mmHg 83%
    22:00 +8°C° 0.1 mm 4 mps 760 mmHg 83%
    23:00 +8°C° 0.1 mm 4 mps 761 mmHg 84%

    Day after tomorrow, 17 December, Monday

    Time Temperature Precipitation Wind Pressure Humidity
    00:00 +7°C° 0.1 mm 4 mps 762 mmHg 84%
    01:00 +8°C° 0 mm 3 mps 762 mmHg 85%
    02:00 +8°C° 0 mm 3 mps 762 mmHg 86%
    03:00 +7°C° 0 mm 3 mps 763 mmHg 87%
    04:00 +7°C° 0.1 mm 2 mps 763 mmHg 88%
    05:00 +7°C° 0.1 mm 2 mps 764 mmHg 89%
    06:00 +7°C° 0.1 mm 2 mps 764 mmHg 90%
    07:00 +7°C° 0 mm 2 mps 765 mmHg 89%
    08:00 +8°C° 0 mm 2 mps 765 mmHg 89%
    09:00 +8°C° 0 mm 2 mps 766 mmHg 88%
    10:00 +9°C° 0 mm 2 mps 766 mmHg 83%
    11:00 +12°C° 0 mm 2 mps 766 mmHg 78%
    12:00 +12°C° 0 mm 3 mps 766 mmHg 73%
    13:00 +13°C° 0.1 mm 2 mps 766 mmHg 75%
    14:00 +13°C° 0.1 mm 2 mps 766 mmHg 76%
    15:00 +13°C° 0.1 mm 1 mps 766 mmHg 78%
    16:00 +12°C° 0 mm 1 mps 766 mmHg 82%
    17:00 +10°C° 0 mm 1 mps 766 mmHg 86%
    18:00 +8°C° 0 mm 2 mps 766 mmHg 90%
    19:00 +8°C° 0 mm 2 mps 766 mmHg 91%
    20:00 +8°C° 0 mm 2 mps 766 mmHg 92%
    21:00 +7°C° 0 mm 2 mps 766 mmHg 93%
    22:00 +7°C° 0 mm 2 mps 765 mmHg 92%
    23:00 +7°C° 0 mm 3 mps 765 mmHg 92%

    18 December, Tuesday

    Time Temperature Precipitation Wind Pressure Humidity
    00:00 +7°C° 0 mm 3 mps 764 mmHg 92%
    01:00 +6°C° 0 mm 4 mps 763 mmHg 91%
    02:00 +6°C° 0 mm 4 mps 763 mmHg 90%
    03:00 +6°C° 0 mm 4 mps 762 mmHg 88%
    04:00 +5°C° 0 mm 4 mps 761 mmHg 86%
    05:00 +5°C° 0 mm 4 mps 761 mmHg 83%
    06:00 +5°C° 0 mm 5 mps 760 mmHg 80%
    07:00 +6°C° 0 mm 5 mps 759 mmHg 77%
    08:00 +6°C° 0 mm 5 mps 759 mmHg 73%
    09:00 +5°C° 0 mm 6 mps 759 mmHg 69%
    10:00 +8°C° 0 mm 6 mps 758 mmHg 67%
    11:00 +9°C° 0 mm 6 mps 757 mmHg 65%
    12:00 +10°C° 0 mm 6 mps 757 mmHg 63%
    13:00 +10°C° 0 mm 6 mps 757 mmHg 64%
    14:00 +10°C° 0 mm 5 mps 756 mmHg 65%
    15:00 +12°C° 0 mm 5 mps 756 mmHg 66%
    16:00 +10°C° 0.3 mm 5 mps 757 mmHg 71%
    17:00 +10°C° 0.3 mm 4 mps 757 mmHg 76%
    18:00 +10°C° 0.3 mm 4 mps 757 mmHg 80%
    19:00 +10°C° 0.7 mm 4 mps 758 mmHg 83%
    20:00 +9°C° 0.7 mm 3 mps 758 mmHg 86%
    21:00 +9°C° 0.7 mm 3 mps 759 mmHg 88%
    22:00 +9°C° 0.3 mm 3 mps 759 mmHg 89%
    23:00 +9°C° 0.3 mm 3 mps 759 mmHg 89%

    19 December, Wednesday

    Time Temperature Precipitation Wind Pressure Humidity
    00:00 +9°C° 0.3 mm 3 mps 760 mmHg 89%
    01:00 +9°C° 0.1 mm 3 mps 760 mmHg 90%
    02:00 +8°C° 0.1 mm 3 mps 760 mmHg 91%
    03:00 +8°C° 0.1 mm 2 mps 760 mmHg 92%
    04:00 +8°C° 0.2 mm 3 mps 760 mmHg 92%
    05:00 +7°C° 0.2 mm 3 mps 760 mmHg 92%
    06:00 +7°C° 0.2 mm 3 mps 760 mmHg 92%
    07:00 +8°C° 0.6 mm 3 mps 761 mmHg 91%
    08:00 +8°C° 0.6 mm 3 mps 761 mmHg 89%
    09:00 +8°C° 0.6 mm 4 mps 761 mmHg 88%
    10:00 +8°C° 0.6 mm 4 mps 761 mmHg 85%
    11:00 +10°C° 0.6 mm 4 mps 761 mmHg 82%
    12:00 +11°C° 0.6 mm 4 mps 761 mmHg 78%
    13:00 +10°C° 0.6 mm 4 mps 761 mmHg 80%
    14:00 +10°C° 0.6 mm 4 mps 761 mmHg 81%
    15:00 +10°C° 0.6 mm 4 mps 760 mmHg 82%
    16:00 +10°C° 1 mm 3 mps 761 mmHg 85%
    17:00 +9°C° 1 mm 3 mps 761 mmHg 88%
    18:00 +8°C° 1 mm 3 mps 761 mmHg 90%
    19:00 +8°C° 0 mm 3 mps 762 mmHg 90%
    20:00 +8°C° 0 mm 2 mps 762 mmHg 91%
    21:00 +8°C° 0 mm 2 mps 763 mmHg 91%
    22:00 +7°C° 0 mm 2 mps 763 mmHg 91%
    23:00 +7°C° 0 mm 2 mps 763 mmHg 91%

    20 December, Thursday

    Time Temperature Precipitation Wind Pressure Humidity
    00:00 +7°C° 0 mm 2 mps 763 mmHg 91%
    01:00 +7°C° 0 mm 2 mps 763 mmHg 91%
    02:00 +7°C° 0 mm 2 mps 763 mmHg 91%
    03:00 +6°C° 0 mm 2 mps 763 mmHg 91%
    04:00 +6°C° 0.1 mm 2 mps 764 mmHg 91%
    05:00 +7°C° 0.1 mm 2 mps 764 mmHg 91%
    06:00 +7°C° 0.1 mm 2 mps 764 mmHg 91%
    07:00 +7°C° 0.1 mm 2 mps 764 mmHg 90%
    08:00 +8°C° 0.1 mm 2 mps 764 mmHg 89%
    09:00 +8°C° 0.1 mm 3 mps 764 mmHg 88%
    10:00 +9°C° 0.1 mm 3 mps 764 mmHg 84%
    11:00 +10°C° 0.1 mm 3 mps 764 mmHg 80%
    12:00 +11°C° 0.1 mm 4 mps 764 mmHg 76%
    13:00 +11°C° 0.2 mm 4 mps 764 mmHg 79%
    14:00 +10°C° 0.2 mm 4 mps 764 mmHg 82%
    15:00 +10°C° 0.2 mm 4 mps 764 mmHg 85%
    16:00 +10°C° 0.4 mm 4 mps 764 mmHg 86%
    17:00 +10°C° 0.4 mm 4 mps 764 mmHg 88%
    18:00 +10°C° 0.4 mm 4 mps 765 mmHg 90%
    19:00 +9°C° 0.1 mm 3 mps 765 mmHg 90%
    20:00 +9°C° 0.1 mm 3 mps 765 mmHg 91%
    21:00 +9°C° 0.1 mm 2 mps 765 mmHg 92%
    22:00 +8°C° 0 mm 2 mps 765 mmHg 92%
    23:00 +8°C° 0 mm 2 mps 765 mmHg 93%
    Show more